FW2172 Numazu JP current weather conditions

sailwx.info

Wind from 112 at 0 knots gusting 2

Air temperature 9.4° C
Dewpoint 9.1° C

Last reported at 2019-Dec-09 17:10 UTC.
Time now 2019-Dec-09 17:46 UTC

Location: N 35°06' E 138°52'.
View on Google Maps.

See reports from other nearby stations

  
Tides and Currents Weather Stations Pressure Air Temp Water Temp Dewpoint Dewpoint Depression Visibility Wind Speed Wind Dir Waves Ship Positions
date/time (UTC)wind fromknots sea level pressurealtimeterstation pressurevisibilityair tempwater tempwave heightnotes
2019-Dec-09 17:10 112 0 gusting 2 9.4
2019-Dec-09 17:05 112 3 gusting 3 9.4
2019-Dec-09 17:00 112 2 gusting 0 9.4
2019-Dec-09 16:55 067 2 gusting 3 9.4
2019-Dec-09 16:50 135 3 gusting 3 9.4
2019-Dec-09 16:45 067 1 gusting 3 9.4
2019-Dec-09 16:40 090 3 gusting 3 8.9
2019-Dec-09 16:35 090 8.9
2019-Dec-09 16:30 067 8.9
2019-Dec-09 16:25 8.9
2019-Dec-09 16:20 022 8.9
2019-Dec-09 16:15 067 8.9
2019-Dec-09 16:10 067 8.9
2019-Dec-09 16:05 067 8.9
2019-Dec-09 16:00 8.9
2019-Dec-09 15:55 337 8.9
2019-Dec-09 15:50 315 2 8.9
2019-Dec-09 15:45 315 1 gusting 0 8.9
2019-Dec-09 15:40 8.9
2019-Dec-09 15:35 8.9
2019-Dec-09 15:30 045 1 gusting 1 8.9
2019-Dec-09 15:25 045 3 gusting 2 8.9
2019-Dec-09 15:20 090 2 gusting 1 8.9
2019-Dec-09 15:15 067 2 gusting 3 8.9
2019-Dec-09 15:10 067 1 gusting 2 8.9
2019-Dec-09 15:05 045 3 gusting 4 8.9
2019-Dec-09 14:55 022 0 gusting 0 8.9
2019-Dec-09 14:50 045 8.9
2019-Dec-09 14:45 112 2 gusting 2 8.9
2019-Dec-09 14:40 090 3 gusting 3 8.9
2019-Dec-09 14:35 067 0 gusting 2 8.9
2019-Dec-09 14:30 067 1 gusting 2 8.9
2019-Dec-09 14:25 022 0 gusting 3 8.9
2019-Dec-09 14:20 067 1 gusting 2 9.4
2019-Dec-09 14:15 022 9.4
2019-Dec-09 14:10 090 9.4
2019-Dec-09 14:05 022 9.4
2019-Dec-09 14:00 067 9.4
2019-Dec-09 13:55 135 9.4
2019-Dec-09 13:50 225 0 gusting 1 9.4
2019-Dec-09 13:45 157 1 9.4
2019-Dec-09 13:40 157 4 gusting 2 9.4
2019-Dec-09 13:35 090 3 gusting 2 9.4
2019-Dec-09 13:30 135 4 gusting 1 9.4
2019-Dec-09 13:25 135 3 gusting 4 9.4
2019-Dec-09 13:20 067 3 gusting 3 9.4
2019-Dec-09 13:15 090 3 gusting 4 9.4
2019-Dec-09 13:10 067 4 gusting 3 9.4
2019-Dec-09 13:05 135 3 gusting 3 8.9
2019-Dec-09 13:00 135 2 gusting 2 8.9
2019-Dec-09 12:55 067 3 gusting 4 8.9
2019-Dec-09 12:50 067 3 gusting 3 8.9
2019-Dec-09 12:45 067 3 gusting 4 8.9
2019-Dec-09 12:40 067 2 gusting 2 8.9
2019-Dec-09 12:35 090 3 gusting 3 8.9
2019-Dec-09 12:30 090 2 gusting 2 8.9
2019-Dec-09 12:25 045 3 gusting 3 9.4
2019-Dec-09 12:20 135 3 gusting 2 9.4
2019-Dec-09 12:15 045 3 gusting 5 9.4
2019-Dec-09 12:10 067 3 gusting 6 9.4
2019-Dec-09 12:05 090 2 gusting 1 9.4
2019-Dec-09 12:00 067 2 gusting 2 9.4
2019-Dec-09 11:55 067 4 gusting 5 9.4
2019-Dec-09 11:50 112 3 gusting 2 10.0
2019-Dec-09 11:45 090 3 10.0
2019-Dec-09 11:40 067 5 gusting 5 10.0
2019-Dec-09 11:35 090 5 gusting 4 10.0
2019-Dec-09 11:30 090 4 gusting 6 10.0
2019-Dec-09 11:25 067 5 gusting 4 10.0
2019-Dec-09 11:20 067 3 gusting 7 10.0
2019-Dec-09 11:15 090 6 gusting 5 9.4
2019-Dec-09 11:10 090 5 gusting 3 9.4
2019-Dec-09 11:05 112 6 gusting 5 9.4
2019-Dec-09 11:00 045 3 gusting 3 9.4
2019-Dec-09 10:55 090 2 gusting 3 9.4
2019-Dec-09 10:50 067 5 gusting 3 9.4
2019-Dec-09 10:45 045 5 gusting 4 9.4
2019-Dec-09 10:40 067 5 gusting 6 9.4
2019-Dec-09 10:35 067 4 gusting 4 9.4
2019-Dec-09 10:30 090 1 gusting 5 9.4
2019-Dec-09 10:25 067 3 gusting 5 9.4
2019-Dec-09 10:20 112 3 gusting 2 9.4
2019-Dec-09 10:15 067 3 gusting 6 9.4
2019-Dec-09 10:10 090 3 gusting 2 9.4
2019-Dec-09 10:05 090 3 gusting 3 10.0
2019-Dec-09 10:00 090 2 gusting 2 10.0
2019-Dec-09 09:55 090 1 gusting 2 10.0
2019-Dec-09 09:50 067 1 gusting 2 10.0
2019-Dec-09 09:45 067 3 gusting 2 10.0
2019-Dec-09 09:40 090 3 gusting 4 10.0
2019-Dec-09 09:35 135 4 gusting 2 10.0
2019-Dec-09 09:30 090 2 gusting 3 10.0
2019-Dec-09 09:25 090 3 gusting 5 10.0
2019-Dec-09 09:20 090 3 gusting 2 10.0
2019-Dec-09 09:15 112 3 gusting 5 10.0
2019-Dec-09 09:10 112 2 gusting 1 10.0
2019-Dec-09 09:05 067 3 gusting 5 10.0
2019-Dec-09 09:00 112 2 gusting 4 10.0
2019-Dec-09 08:55 135 2 gusting 4 10.6
2019-Dec-09 08:50 090 2 gusting 2 10.6
2019-Dec-09 08:45 135 2 gusting 2 10.6
2019-Dec-09 08:40 067 2 gusting 5 11.1
2019-Dec-09 08:35 090 2 gusting 4 11.1
2019-Dec-09 08:30 090 3 gusting 2 11.1
2019-Dec-09 08:25 067 1 gusting 1 11.1
2019-Dec-09 08:20 112 3 gusting 2 11.1
2019-Dec-09 08:15 090 1 gusting 1 11.1
2019-Dec-09 08:10 067 3 gusting 2 11.1
2019-Dec-09 08:05 067 2 gusting 2 11.1
2019-Dec-09 08:00 157 1 gusting 1 11.1
2019-Dec-09 07:55 135 3 gusting 3 11.1
2019-Dec-09 07:50 067 3 gusting 6 11.1
2019-Dec-09 07:45 112 5 gusting 3 11.1
2019-Dec-09 07:40 337 3 gusting 1 11.1
2019-Dec-09 07:35 090 2 gusting 3 11.7
2019-Dec-09 07:30 067 1 gusting 3 11.7
2019-Dec-09 07:25 090 4 gusting 2 11.7
2019-Dec-09 07:20 090 3 gusting 3 11.7
2019-Dec-09 07:15 112 3 gusting 4 11.7
2019-Dec-09 07:10 067 5 gusting 6 11.7
2019-Dec-09 07:05 090 3 gusting 3 11.7
2019-Dec-09 07:00 112 3 gusting 1 11.7
2019-Dec-09 06:55 135 2 gusting 4 11.7
2019-Dec-09 06:50 090 2 gusting 2 11.7
2019-Dec-09 06:45 090 2 gusting 2 12.2
2019-Dec-09 06:40 112 4 gusting 4 12.2
2019-Dec-09 06:35 067 3 gusting 3 12.2
2019-Dec-09 06:30 090 3 gusting 5 12.2
2019-Dec-09 06:25 112 6 gusting 5 12.2
2019-Dec-09 06:20 090 3 gusting 3 12.2
2019-Dec-09 06:15 067 3 gusting 6 12.2
2019-Dec-09 06:10 045 4 gusting 2 12.2
2019-Dec-09 06:05 067 2 gusting 2 12.2
2019-Dec-09 06:00 067 3 gusting 3 12.2
2019-Dec-09 05:55 045 3 gusting 5 12.2
2019-Dec-09 05:50 135 3 gusting 3 12.8
2019-Dec-09 05:45 045 2 gusting 3 12.8
2019-Dec-09 05:40 157 3 gusting 2 12.8
2019-Dec-09 05:35 090 4 gusting 4 12.8
2019-Dec-09 05:30 090 3 gusting 2 12.8
2019-Dec-09 05:25 112 2 gusting 2 12.8
2019-Dec-09 05:20 090 4 gusting 4 12.8
2019-Dec-09 05:15 045 5 gusting 2 12.8
2019-Dec-09 05:10 112 3 gusting 3 12.8
2019-Dec-09 05:05 135 4 gusting 5 12.8
2019-Dec-09 05:00 135 3 gusting 4 12.8
2019-Dec-09 04:55 045 4 gusting 3 12.8
2019-Dec-09 04:50 090 3 gusting 5 13.3
2019-Dec-09 04:45 112 1 gusting 3 13.3
2019-Dec-09 04:40 045 1 gusting 4 13.3
2019-Dec-09 04:35 090 5 gusting 2 13.3
2019-Dec-09 04:30 090 3 gusting 0 13.3
2019-Dec-09 04:25 135 4 gusting 5 13.3
2019-Dec-09 04:20 067 3 gusting 6 13.3
2019-Dec-09 04:15 112 3 gusting 4 13.3
2019-Dec-09 04:10 135 4 gusting 3 13.3
2019-Dec-09 04:05 112 4 gusting 3 13.3
2019-Dec-09 04:00 090 4 gusting 5 13.3
2019-Dec-09 03:55 135 3 gusting 2 13.9
2019-Dec-09 03:50 090 6 gusting 4 13.9
2019-Dec-09 03:45 045 5 gusting 3 13.9
2019-Dec-09 03:40 045 2 gusting 2 13.3
2019-Dec-09 03:35 045 3 gusting 6 13.3
2019-Dec-09 03:30 090 5 gusting 3 13.3
2019-Dec-09 03:25 090 6 gusting 2 13.9
2019-Dec-09 03:20 067 5 gusting 5 13.3
2019-Dec-09 03:15 067 3 gusting 4 13.3
2019-Dec-09 03:10 067 5 gusting 3 13.3
2019-Dec-09 03:05 090 4 gusting 3 13.3
2019-Dec-09 03:00 090 2 gusting 2 13.3
2019-Dec-09 02:55 090 4 gusting 5 13.3
2019-Dec-09 02:50 045 4 gusting 2 13.3
2019-Dec-09 02:45 067 2 gusting 3 13.3
2019-Dec-09 02:40 045 2 gusting 3 13.3
2019-Dec-09 02:35 090 4 gusting 6 13.3
2019-Dec-09 02:30 022 3 gusting 2 13.3
2019-Dec-09 02:25 090 2 gusting 2 13.9
2019-Dec-09 02:20 090 2 gusting 1 13.3
2019-Dec-09 02:15 135 2 gusting 4 13.3
2019-Dec-09 02:10 135 3 gusting 1 12.8
2019-Dec-09 02:05 045 3 gusting 4 12.8
2019-Dec-09 02:00 090 1 gusting 1 12.8
2019-Dec-09 01:55 135 3 gusting 3 12.2
2019-Dec-09 01:50 090 3 gusting 2 12.2
2019-Dec-09 01:45 112 5 gusting 5 12.2
2019-Dec-09 01:40 135 1 gusting 2 12.2
2019-Dec-09 01:35 090 3 gusting 1 12.2
2019-Dec-09 01:30 112 3 gusting 3 12.2
2019-Dec-09 01:25 090 2 gusting 3 11.7
2019-Dec-09 01:20 067 3 gusting 3 11.7
2019-Dec-09 01:15 067 1 gusting 1 11.7
2019-Dec-09 01:10 045 2 gusting 2 11.1
2019-Dec-09 01:05 090 3 gusting 2 10.6
2019-Dec-09 01:00 135 1 gusting 1 10.6
2019-Dec-09 00:55 112 1 gusting 2 10.6
2019-Dec-09 00:50 112 1 gusting 2 10.6
2019-Dec-09 00:45 157 2 gusting 2 10.0
2019-Dec-09 00:40 090 3 gusting 3 10.0
2019-Dec-09 00:35 067 2 gusting 3 10.0
2019-Dec-09 00:30 090 1 gusting 2 10.0
2019-Dec-09 00:25 135 3 gusting 2 10.0
2019-Dec-09 00:20 090 5 gusting 7 10.0
2019-Dec-09 00:15 067 5 gusting 4 10.0
2019-Dec-09 00:10 090 2 gusting 2 10.0
2019-Dec-09 00:05 090 3 gusting 2 10.0
2019-Dec-09 00:00 067 3 gusting 4 9.4
2019-Dec-08 23:55 067 3 gusting 2 9.4
2019-Dec-08 23:50 067 4 gusting 4 9.4
2019-Dec-08 23:45 067 4 gusting 5 9.4
2019-Dec-08 23:40 067 1 gusting 3 9.4
2019-Dec-08 23:35 112 4 gusting 5 9.4
2019-Dec-08 23:30 090 2 gusting 2 8.9
2019-Dec-08 23:25 045 3 gusting 2 8.9
2019-Dec-08 23:20 045 3 gusting 3 8.3
2019-Dec-08 23:15 090 1 gusting 3 8.3
2019-Dec-08 23:10 112 1 gusting 0 8.3
2019-Dec-08 23:05 090 3 gusting 4 8.3
2019-Dec-08 23:00 067 3 gusting 3 7.8
2019-Dec-08 22:55 090 5 gusting 6 7.8
2019-Dec-08 22:50 067 5 gusting 5 7.8
2019-Dec-08 22:45 067 4 gusting 7 7.8
2019-Dec-08 22:40 045 3 gusting 5 7.8
2019-Dec-08 22:35 067 4 gusting 4 7.2
2019-Dec-08 22:30 067 3 gusting 3 7.2
2019-Dec-08 22:25 090 5 gusting 5 7.2
2019-Dec-08 22:20 090 1 gusting 5 7.2
2019-Dec-08 22:15 045 4 gusting 3 7.2
2019-Dec-08 22:10 067 3 gusting 4 6.7
2019-Dec-08 22:05 067 5 gusting 3 6.7
2019-Dec-08 22:00 135 3 gusting 3 6.7
2019-Dec-08 21:55 067 5 gusting 3 6.7
2019-Dec-08 21:50 090 3 gusting 5 6.1
2019-Dec-08 21:45 045 4 gusting 3 6.1
2019-Dec-08 21:40 067 4 gusting 1 6.1
2019-Dec-08 21:35 067 3 gusting 2 5.6
2019-Dec-08 21:30 067 3 gusting 3 5.6
2019-Dec-08 21:25 090 2 gusting 2 5.0
2019-Dec-08 21:20 090 6 gusting 2 5.0
2019-Dec-08 21:15 067 2 gusting 2 4.4
2019-Dec-08 21:10 067 4 gusting 5 4.4
2019-Dec-08 21:05 112 2 gusting 3 4.4
2019-Dec-08 21:00 315 4 gusting 2 4.4
2019-Dec-08 20:55 067 4 gusting 3 4.4
2019-Dec-08 20:50 067 3 gusting 1 4.4
2019-Dec-08 20:45 045 2 gusting 2 4.4
2019-Dec-08 20:40 090 5 gusting 4 4.4
2019-Dec-08 20:35 045 5 gusting 3 4.4
2019-Dec-08 20:30 045 1 gusting 3 4.4
2019-Dec-08 20:25 045 3 gusting 2 4.4
2019-Dec-08 20:20 067 3 gusting 0 4.4
2019-Dec-08 20:15 045 3 gusting 4 4.4
2019-Dec-08 20:10 067 2 gusting 1 4.4
2019-Dec-08 20:05 045 3 gusting 4 4.4
2019-Dec-08 20:00 292 2 gusting 5 4.4
2019-Dec-08 19:55 045 0 gusting 2 4.4
2019-Dec-08 19:50 067 2 gusting 4 4.4
2019-Dec-08 19:45 067 3 gusting 2 4.4
2019-Dec-08 19:40 067 1 gusting 2 4.4
2019-Dec-08 19:35 045 2 gusting 4 4.4
2019-Dec-08 19:30 4.4
2019-Dec-08 19:25 045 3 gusting 4 4.4
2019-Dec-08 19:20 045 2 gusting 0 5.0
2019-Dec-08 19:15 067 3 gusting 2 5.0
2019-Dec-08 19:10 090 4 gusting 3 5.0
2019-Dec-08 19:05 045 3 gusting 5 5.0
2019-Dec-08 19:00 067 4 gusting 4 5.0
2019-Dec-08 18:55 022 3 gusting 4 5.0
2019-Dec-08 18:50 045 0 gusting 2 5.0
2019-Dec-08 18:45 022 3 gusting 1 5.0
2019-Dec-08 18:40 067 2 gusting 1 4.4
2019-Dec-08 18:35 022 0 gusting 3 4.4
2019-Dec-08 18:30 090 3 gusting 5 4.4
2019-Dec-08 18:25 045 4 gusting 3 4.4
2019-Dec-08 18:20 022 0 gusting 5 4.4
2019-Dec-08 18:15 067 2 gusting 6 5.0
2019-Dec-08 18:10 045 2 5.0
2019-Dec-08 18:05 022 2 5.0
2019-Dec-08 18:00 5.0
2019-Dec-08 17:55 090 5.0
2019-Dec-08 17:50 067 0 gusting 0 5.0
2019-Dec-08 17:45 067 2 gusting 2 5.6
2019-Dec-08 17:40 045 5.6
2019-Dec-08 17:35 067 5.6
2019-Dec-08 17:30 022 0 5.6
2019-Dec-08 17:25 090 2 gusting 2 5.6
2019-Dec-08 17:20 067 4 gusting 5 5.0
2019-Dec-08 17:15 045 6 gusting 5 5.0
2019-Dec-08 17:10 5.0
2019-Dec-08 17:05 067 4 gusting 5 5.0
2019-Dec-08 17:00 090 5 gusting 4 5.0
2019-Dec-08 16:55 045 3 gusting 2 5.0
2019-Dec-08 16:50 045 2 gusting 2 5.6
2019-Dec-08 16:45 067 2 gusting 2 5.6
2019-Dec-08 16:40 067 5 gusting 5 5.6
2019-Dec-08 16:35 067 4 gusting 5 5.6
2019-Dec-08 16:30 045 3 gusting 3 5.6
2019-Dec-08 16:25 067 2 gusting 3 6.1
2019-Dec-08 16:20 067 4 gusting 5 6.1
2019-Dec-08 16:15 067 3 gusting 5 6.1
2019-Dec-08 16:10 067 3 gusting 3 6.7
2019-Dec-08 16:05 067 4 gusting 4 6.7
2019-Dec-08 16:00 045 3 gusting 2 7.2
2019-Dec-08 15:55 045 3 gusting 4 7.2
2019-Dec-08 15:50 067 3 gusting 0 8.9
2019-Dec-08 15:45 045 0 gusting 1 8.9
2019-Dec-08 15:40 022 0 8.9
2019-Dec-08 15:35 045 1 gusting 1 8.9
2019-Dec-08 15:30 090 1 gusting 1 8.9
2019-Dec-08 15:25 090 3 gusting 3 8.9
2019-Dec-08 15:20 112 3 gusting 1 8.9
2019-Dec-08 15:15 090 5 gusting 3 8.9
2019-Dec-08 15:10 112 4 gusting 4 8.9
2019-Dec-08 15:05 090 5 gusting 2 8.9
2019-Dec-08 14:55 090 5 gusting 2 9.4
2019-Dec-08 14:50 090 4 gusting 2 9.4
2019-Dec-08 14:45 045 4 gusting 1 9.4
2019-Dec-08 14:40 090 4 gusting 4 9.4
2019-Dec-08 14:35 112 4 gusting 2 8.9
2019-Dec-08 14:30 090 3 gusting 3 8.9
2019-Dec-08 14:25 112 3 gusting 3 8.9
2019-Dec-08 14:20 112 2 gusting 1 9.4
2019-Dec-08 14:15 045 2 gusting 2 9.4
2019-Dec-08 14:10 045 3 gusting 3 9.4
2019-Dec-08 14:05 067 2 gusting 3 9.4
2019-Dec-08 14:00 090 2 gusting 3 9.4
2019-Dec-08 13:55 090 1 gusting 5 9.4
2019-Dec-08 13:50 090 3 gusting 2 9.4
2019-Dec-08 13:45 090 2 gusting 3 9.4
2019-Dec-08 13:40 022 3 gusting 4 9.4
2019-Dec-08 13:35 090 2 gusting 3 9.4
2019-Dec-08 13:30 067 2 gusting 2 9.4
2019-Dec-08 13:25 090 2 gusting 6 9.4
2019-Dec-08 13:20 112 2 gusting 5 9.4
2019-Dec-08 13:15 112 5 gusting 6 9.4
2019-Dec-08 13:10 112 2 gusting 3 9.4
2019-Dec-08 13:05 112 3 gusting 3 9.4
2019-Dec-08 13:00 157 2 gusting 2 9.4
2019-Dec-08 12:55 045 3 gusting 5 9.4
2019-Dec-08 12:50 135 2 gusting 4 9.4
2019-Dec-08 12:45 090 2 gusting 4 9.4
2019-Dec-08 12:40 090 1 gusting 1 9.4
2019-Dec-08 12:35 067 1 gusting 1 9.4
2019-Dec-08 12:30 090 2 gusting 2 8.9
2019-Dec-08 12:25 090 1 gusting 2 8.9
2019-Dec-08 12:20 045 3 gusting 4 8.9
2019-Dec-08 12:15 090 2 gusting 2 8.9
2019-Dec-08 12:10 067 3 gusting 3 8.9
2019-Dec-08 12:05 8.9
2019-Dec-08 12:00 090 3 gusting 6 8.9
2019-Dec-08 11:55 135 5 gusting 5 8.9
2019-Dec-08 11:50 067 3 gusting 2 8.9
2019-Dec-08 11:45 090 3 gusting 4 8.3
2019-Dec-08 11:40 045 3 gusting 3 8.3
2019-Dec-08 11:35 045 2 gusting 2 8.3
2019-Dec-08 11:30 067 1 gusting 2 7.8
2019-Dec-08 11:25 067 2 gusting 3 7.8
2019-Dec-08 11:20 045 4 gusting 4 7.8
2019-Dec-08 11:15 090 4 gusting 3 8.3
2019-Dec-08 11:10 090 5 gusting 4 8.3
2019-Dec-08 11:05 067 2 gusting 2 8.3
2019-Dec-08 11:00 045 2 gusting 3 8.3
2019-Dec-08 10:55 067 3 gusting 4 8.9
2019-Dec-08 10:50 045 2 gusting 3 8.9
2019-Dec-08 10:45 067 3 gusting 3 8.9
2019-Dec-08 10:40 067 4 gusting 4 8.9
2019-Dec-08 10:35 067 3 gusting 3 8.9
2019-Dec-08 10:30 045 3 gusting 5 8.9
2019-Dec-08 10:25 090 2 gusting 2 8.9
2019-Dec-08 10:20 022 4 gusting 4 9.4
2019-Dec-08 10:15 045 4 gusting 2 9.4
2019-Dec-08 10:10 067 2 gusting 0 9.4
2019-Dec-08 10:05 090 3 gusting 4 9.4
2019-Dec-08 10:00 090 2 gusting 3 10.0
2019-Dec-08 09:55 090 2 gusting 1 10.0
2019-Dec-08 09:50 045 2 gusting 3 10.0
2019-Dec-08 09:45 090 2 gusting 2 9.4
2019-Dec-08 09:40 067 3 gusting 2 10.0
2019-Dec-08 09:35 090 3 gusting 3 9.4
2019-Dec-08 09:30 090 2 gusting 0 9.4
2019-Dec-08 09:25 090 0 gusting 2 10.0
2019-Dec-08 09:20 067 3 gusting 4 10.0
2019-Dec-08 09:15 090 2 gusting 0 10.0
2019-Dec-08 09:10 090 2 gusting 2 10.0
2019-Dec-08 09:05 112 2 gusting 3 10.0
2019-Dec-08 09:00 090 3 gusting 3 10.0
2019-Dec-08 08:55 067 4 gusting 3 10.0
2019-Dec-08 08:50 067 3 gusting 1 10.0
2019-Dec-08 08:45 090 3 gusting 6 10.0
2019-Dec-08 08:40 112 1 gusting 3 10.0
2019-Dec-08 08:35 135 2 gusting 1 10.0
2019-Dec-08 08:30 067 2 gusting 2 10.0
2019-Dec-08 08:25 045 3 gusting 2 10.0
2019-Dec-08 08:20 067 2 gusting 1 10.0
2019-Dec-08 08:15 112 1 gusting 2 10.0
2019-Dec-08 08:10 090 2 gusting 1 10.6
2019-Dec-08 08:05 090 2 gusting 2 10.6
2019-Dec-08 08:00 067 2 gusting 3 11.1
2019-Dec-08 07:55 045 3 gusting 3 11.1
2019-Dec-08 07:50 090 5 gusting 1 11.1
2019-Dec-08 07:45 112 3 gusting 3 11.1
2019-Dec-08 07:40 112 5 gusting 7 11.7
2019-Dec-08 07:35 090 1 gusting 2 11.7
2019-Dec-08 07:30 225 1 gusting 1 12.2
2019-Dec-08 07:25 157 3 gusting 3 12.2
2019-Dec-08 07:20 180 2 gusting 1 12.8
2019-Dec-08 07:15 090 4 gusting 5 13.3
2019-Dec-08 07:10 157 2 gusting 4 13.9
2019-Dec-08 07:05 112 2 gusting 2 14.4
2019-Dec-08 07:00 135 3 gusting 1 15.0
2019-Dec-08 06:55 135 1 gusting 3 15.0
2019-Dec-08 06:50 135 2 gusting 2 15.0
2019-Dec-08 06:45 067 3 gusting 2 15.6
2019-Dec-08 06:40 112 3 gusting 3 15.6
2019-Dec-08 06:35 135 2 gusting 5 16.1
2019-Dec-08 06:30 135 3 gusting 1 16.1
2019-Dec-08 06:25 157 1 gusting 3 16.1
2019-Dec-08 06:20 135 1 gusting 1 16.1
2019-Dec-08 06:15 180 1 gusting 1 16.1
2019-Dec-08 06:10 225 2 gusting 0 16.1
2019-Dec-08 06:05 135 2 gusting 2 16.1
2019-Dec-08 06:00 135 3 gusting 6 16.1
2019-Dec-08 05:55 135 2 gusting 2 16.7
2019-Dec-08 05:50 135 3 gusting 3 16.7
2019-Dec-08 05:45 135 1 gusting 3 16.7
2019-Dec-08 05:40 135 2 gusting 2 16.7
2019-Dec-08 05:35 135 4 gusting 1 16.7
2019-Dec-08 05:30 225 2 gusting 2 17.2
2019-Dec-08 05:25 157 2 gusting 2 17.8
2019-Dec-08 05:20 202 1 gusting 2 18.9
2019-Dec-08 05:15 225 0 gusting 1 18.3
2019-Dec-08 05:10 270 3 gusting 2 18.9
2019-Dec-08 05:05 270 1 gusting 2 18.9
2019-Dec-08 05:00 270 18.3
2019-Dec-08 04:55 135 1 gusting 2 17.8
2019-Dec-08 04:50 202 3 gusting 4 18.3
2019-Dec-08 04:45 202 18.3
2019-Dec-08 04:40 135 2 gusting 2 18.3
2019-Dec-08 04:35 157 2 gusting 1 18.3
2019-Dec-08 04:30 112 1 gusting 0 18.3
2019-Dec-08 04:25 202 2 gusting 3 18.3
2019-Dec-08 04:20 225 2 gusting 1 18.3
2019-Dec-08 04:15 247 3 gusting 3 18.3
2019-Dec-08 04:10 247 3 gusting 3 18.3
2019-Dec-08 04:05 202 18.3
2019-Dec-08 04:00 157 0 18.3
2019-Dec-08 03:55 247 1 gusting 2 17.8
2019-Dec-08 03:50 225 1 gusting 2 18.3
2019-Dec-08 03:45 202 2 gusting 3 17.8
2019-Dec-08 03:40 225 1 gusting 2 17.8
2019-Dec-08 03:35 225 3 gusting 2 18.3
2019-Dec-08 03:30 225 0 gusting 1 18.3
2019-Dec-08 03:25 225 2 gusting 1 18.3
2019-Dec-08 03:20 225 0 gusting 0 18.3
2019-Dec-08 03:15 157 1 gusting 1 17.8
2019-Dec-08 03:10 225 1 gusting 2 17.8
2019-Dec-08 03:05 180 0 gusting 1 18.3
2019-Dec-08 03:00 202 0 18.3
2019-Dec-08 02:55 180 1 gusting 1 17.8
2019-Dec-08 02:50 270 1 gusting 1 17.8
2019-Dec-08 02:45 270 0 gusting 0 17.2
2019-Dec-08 02:40 270 2 gusting 5 17.8
2019-Dec-08 02:35 202 2 gusting 2 17.8
2019-Dec-08 02:30 270 17.2
2019-Dec-08 02:25 067 1 gusting 2 17.2
2019-Dec-08 02:20 045 1 gusting 2 16.7
2019-Dec-08 02:15 067 0 gusting 0 16.7
2019-Dec-08 02:10 090 16.7
2019-Dec-08 02:05 16.7
2019-Dec-08 02:00 045 1 gusting 1 16.1
2019-Dec-08 01:55 022 1 gusting 0 16.1
2019-Dec-08 01:50 022 0 gusting 1 16.1
2019-Dec-08 01:45 337 0 gusting 0 15.6
2019-Dec-08 01:40 045 15.0
2019-Dec-08 01:35 337 1 gusting 0 14.4
2019-Dec-08 01:30 067 1 gusting 1 13.9
2019-Dec-08 01:25 045 1 gusting 2 13.3
2019-Dec-08 01:20 225 1 gusting 1 13.3
2019-Dec-08 01:15 045 1 gusting 0 12.8
2019-Dec-08 01:10 045 2 gusting 2 12.2
2019-Dec-08 01:05 045 0 gusting 3 11.7
2019-Dec-08 01:00 067 2 gusting 2 11.7
2019-Dec-08 00:55 045 2 gusting 1 11.1
2019-Dec-08 00:50 067 1 gusting 0 11.1
2019-Dec-08 00:45 045 2 gusting 2 10.0
2019-Dec-08 00:40 067 3 gusting 2 10.0
2019-Dec-08 00:35 067 2 gusting 4 10.0
2019-Dec-08 00:30 067 1 gusting 1 9.4
2019-Dec-08 00:25 067 2 gusting 2 8.9
2019-Dec-08 00:20 045 2 gusting 2 8.9
2019-Dec-08 00:15 067 1 gusting 0 8.3
2019-Dec-08 00:10 067 3 gusting 3 7.8
2019-Dec-08 00:05 067 3 gusting 2 7.8
2019-Dec-08 00:00 067 2 gusting 2 7.2
2019-Dec-07 23:55 045 2 gusting 2 6.7
2019-Dec-07 23:50 067 3 gusting 3 6.7
2019-Dec-07 23:45 067 2 gusting 3 6.1
2019-Dec-07 23:40 045 1 gusting 1 6.1
2019-Dec-07 23:35 067 3 gusting 2 5.6
2019-Dec-07 23:30 045 3 gusting 2 5.0
2019-Dec-07 23:25 090 4 gusting 1 4.4
2019-Dec-07 23:20 067 3 gusting 2 4.4
2019-Dec-07 23:15 045 2 gusting 3 3.9
2019-Dec-07 23:10 3.9
2019-Dec-07 23:05 045 4 gusting 4 3.3
2019-Dec-07 23:00 067 5 gusting 5 3.3
2019-Dec-07 22:55 090 6 gusting 5 3.3
2019-Dec-07 22:50 090 5 gusting 3 2.8
2019-Dec-07 22:45 067 5 gusting 3 2.8
2019-Dec-07 22:40 045 4 gusting 3 2.8
2019-Dec-07 22:35 045 5 gusting 4 2.2
2019-Dec-07 22:30 045 3 gusting 1 2.2
2019-Dec-07 22:25 090 3 gusting 1 2.2
2019-Dec-07 22:20 067 3 gusting 5 2.2
2019-Dec-07 22:15 045 2 gusting 0 2.2
2019-Dec-07 22:10 022 1 gusting 2 2.2
2019-Dec-07 22:05 022 2 gusting 2 2.2
2019-Dec-07 22:00 045 3 gusting 1 2.2
2019-Dec-07 21:55 067 2 gusting 3 2.2
2019-Dec-07 21:50 2.2
2019-Dec-07 21:45 090 3 gusting 2 2.2
2019-Dec-07 21:40 2.2
2019-Dec-07 21:35 067 4 gusting 4 2.2
2019-Dec-07 21:30 337 3 gusting 3 2.2
2019-Dec-07 21:25 045 3 gusting 3 2.2
2019-Dec-07 21:20 090 4 gusting 3 2.2
2019-Dec-07 21:15 2.2
2019-Dec-07 21:10 045 3 gusting 1 2.2
2019-Dec-07 21:05 090 2 gusting 1 2.2
2019-Dec-07 21:00 112 3 gusting 5 2.2
2019-Dec-07 20:55 045 3 gusting 5 2.2
2019-Dec-07 20:50 067 2 gusting 3 2.2
2019-Dec-07 20:45 045 2 gusting 4 2.2
2019-Dec-07 20:40 067 3 gusting 2 2.2
2019-Dec-07 20:35 045 2 gusting 4 2.8
2019-Dec-07 20:30 090 3 gusting 4 2.8
2019-Dec-07 20:25 045 3 gusting 2 2.8
2019-Dec-07 20:20 2.8
2019-Dec-07 20:15 045 1 gusting 2 2.8
2019-Dec-07 20:10 022 4 gusting 3 3.3
2019-Dec-07 20:05 067 3 gusting 0 3.3
2019-Dec-07 20:00 022 1 gusting 2 3.3
2019-Dec-07 19:55 315 2 gusting 1 3.3
2019-Dec-07 19:50 067 3 gusting 2 3.3
2019-Dec-07 19:45 045 3 gusting 4 3.9
2019-Dec-07 19:40 022 1 gusting 3 3.9
2019-Dec-07 19:35 022 3.9
2019-Dec-07 19:30 022 1 gusting 2 3.9
2019-Dec-07 19:25 067 3 gusting 2 3.9
2019-Dec-07 19:20 045 2 gusting 3 3.9
2019-Dec-07 19:15 067 3 gusting 2 3.9
2019-Dec-07 19:10 067 3 gusting 3 3.9
2019-Dec-07 19:05 045 3 gusting 3 3.9
2019-Dec-07 19:00 067 2 gusting 1 3.9
2019-Dec-07 18:55 067 5 gusting 5 3.9
2019-Dec-07 18:50 090 2 gusting 2 3.9
2019-Dec-07 18:45 022 0 gusting 2 3.9
2019-Dec-07 18:40 022 2 gusting 3 3.9
2019-Dec-07 18:35 045 1 gusting 0 3.9
2019-Dec-07 18:30 067 2 gusting 2 3.9
2019-Dec-07 18:25 315 1 gusting 2 4.4
2019-Dec-07 18:20 045 3 gusting 5 4.4
2019-Dec-07 18:15 067 4 gusting 2 4.4
2019-Dec-07 18:10 045 4 gusting 6 4.4
2019-Dec-07 18:05 067 4 gusting 5 4.4
2019-Dec-07 18:00 067 1 gusting 1 5.0
2019-Dec-07 17:55 067 3 gusting 2 5.0
2019-Dec-07 17:50 067 3 gusting 3 5.0
2019-Dec-07 17:45 067 3 gusting 6 5.0
2019-Dec-07 17:40 067 3 gusting 3 5.0
2019-Dec-07 17:35 067 5 gusting 4 4.4
2019-Dec-07 17:30 045 3 gusting 4 4.4
2019-Dec-07 17:25 067 3 gusting 5 5.0
2019-Dec-07 17:20 045 3 gusting 2 5.0
2019-Dec-07 17:15 045 2 gusting 3 5.0
2019-Dec-07 17:10 022 2 gusting 4 5.0
2019-Dec-07 17:05 337 3 gusting 1 5.0
2019-Dec-07 17:00 067 1 gusting 0 5.0